Date String (YYYY-MM-DD hh:mm:ss) UTC,Instrument flags,absolute air pressure of the measurement (hPa),sample flow rate (lpm),inlet stack bypass flow (lpm),air temperature of the measurement (°C),ambient temperature measured by the external sensor (°C),aerosol sample conditioner tube jacket temperature (°C),OPC LED temperature (°C),internal box temperature (°C),relative humidity of the measurement (%),span deviation,mass concentration of particles derived from Lorenz-Mie calculation of OPC scattering (μg/m³),mass concentration of particles derived from Lorenz-Mie calculation of OPC scattering (μg/m³),mass concentration of particles derived from Lorenz-Mie calculation of OPC scattering (μg/m³)
DateTimeUTC,F1_M11,P_M11,Q1_M11,Q2_M11,T1_M11,T2_M11,T3_M11,T4_M11,T5_M11,U1_M11,ZSPAN_M11,X2_M11,X0_M11,X1_M11
2023-08-25 09:00:00,SystemResetWarning,0834.4,5.00,000.00,028.1,026.6,000.0,036.5,029.8,33.4,0000.3,0004.96,0009.41,0004.28
2023-08-25 09:01:00,SystemResetWarning,0834.4,5.00,000.00,028.1,026.7,000.0,036.5,029.8,33.7,0000.0,0004.96,0009.39,0004.28
2023-08-25 09:02:00,SystemResetWarning,0834.4,5.01,000.00,028.2,026.9,000.0,036.5,029.9,33.8,0000.0,0004.95,0009.21,0004.27
2023-08-25 09:03:00,SystemResetWarning,0834.4,5.00,000.00,028.2,027.0,000.0,036.5,029.9,33.5,0000.0,0004.95,0008.99,0004.26
2023-08-25 09:04:00,SystemResetWarning,0834.4,4.98,000.00,028.2,026.8,000.0,036.5,029.9,33.2,0000.0,0004.97,0009.75,0004.26
2023-08-25 09:05:00,SystemResetWarning,0834.4,5.00,000.00,028.2,025.0,000.0,036.4,029.6,32.9,-000.5,0004.94,0009.94,0004.25
2023-08-25 09:06:00,SystemResetWarning,0834.4,5.00,000.00,028.1,023.8,000.0,036.3,029.3,32.7,-000.9,0004.96,0010.00,0004.24
2023-08-25 09:07:00,SystemResetWarning,0834.4,5.01,000.00,028.0,023.6,000.0,036.2,029.2,32.5,-000.9,0004.95,0010.03,0004.23
2023-08-25 09:08:00,SystemResetWarning,0834.4,5.01,000.00,027.9,023.9,000.0,036.3,029.2,32.7,-000.7,0004.93,0010.06,0004.22
2023-08-25 09:09:00,SystemResetWarning,0834.5,4.99,000.00,027.8,024.4,000.0,036.3,029.2,32.7,-000.5,0004.91,0010.04,0004.22
2023-08-25 09:10:00,SystemResetWarning,0834.5,5.00,000.00,027.8,024.9,000.0,036.3,029.3,32.3,-001.2,0004.90,0009.57,0004.21
2023-08-25 09:11:00,SystemResetWarning,0834.5,5.00,000.00,027.8,025.3,000.0,036.3,029.4,32.4,-001.5,0004.89,0009.75,0004.20
2023-08-25 09:12:00,SystemResetWarning,0834.6,4.99,000.00,027.9,025.6,000.0,036.3,029.5,32.4,-001.1,0004.90,0010.24,0004.19
2023-08-25 09:13:00,SystemResetWarning,0835.0,5.00,000.00,027.9,025.9,000.0,036.3,029.5,32.1,-000.8,0004.88,0010.21,0004.19
2023-08-25 09:14:00,SystemResetWarning,0835.1,5.01,000.00,027.9,026.2,000.0,036.4,029.6,32.0,-001.0,0004.88,0010.00,0004.19
2023-08-25 09:15:00,SystemResetWarning,0834.8,5.00,000.00,028.0,026.4,000.0,036.4,029.7,32.0,-001.3,0004.86,0009.25,0004.18
2023-08-25 09:16:00,SystemResetWarning,0834.9,5.00,000.00,028.0,026.6,000.0,036.4,029.7,32.1,-000.2,0004.85,0008.92,0004.17
2023-08-25 09:17:00,SystemResetWarning,0835.1,5.00,000.00,028.1,026.8,000.0,036.4,029.8,32.5,0000.0,0004.85,0008.98,0004.16
2023-08-25 09:18:00,SystemResetWarning,0835.1,5.00,000.00,028.1,026.9,000.0,036.4,029.8,33.1,0000.0,0004.86,0009.00,0004.15
2023-08-25 09:19:00,SystemResetWarning,0834.6,5.00,000.00,028.1,027.0,000.0,036.5,029.9,33.0,0000.1,0004.87,0008.96,0004.15
2023-08-25 09:20:00,SystemResetWarning,0834.6,4.99,000.00,028.2,027.1,000.0,036.5,029.9,32.6,0000.1,0004.85,0008.85,0004.14
2023-08-25 09:21:00,SystemResetWarning,0834.9,4.98,000.00,028.2,026.1,000.0,036.4,029.8,32.8,-000.0,0004.87,0008.94,0004.15
2023-08-25 09:22:00,SystemResetWarning,0834.6,5.01,000.00,028.1,024.7,000.0,036.3,029.5,32.8,0000.3,0004.84,0008.98,0004.15
2023-08-25 09:23:00,SystemResetWarning,0834.6,5.00,000.00,028.0,024.5,000.0,036.3,029.4,33.0,0000.4,0004.83,0008.49,0004.15
2023-08-25 09:24:00,SystemResetWarning,0834.6,5.01,000.00,027.9,024.7,000.0,036.3,029.3,33.0,0000.5,0004.88,0008.58,0004.16
2023-08-25 09:25:00,SystemResetWarning,0835.1,5.00,000.00,027.9,025.1,000.0,036.4,029.4,32.9,0001.0,0004.87,0008.50,0004.15
2023-08-25 09:26:00,SystemResetWarning,0835.2,5.00,000.00,027.9,025.5,000.0,036.4,029.5,32.8,0001.1,0004.88,0008.54,0004.15
2023-08-25 09:27:00,SystemResetWarning,0834.7,5.00,000.00,028.0,025.8,000.0,036.4,029.6,33.4,0000.6,0004.91,0008.64,0004.17
2023-08-25 09:28:00,SystemResetWarning,0834.7,5.00,000.00,028.0,026.1,000.0,036.4,029.6,34.1,-000.0,0004.91,0008.59,0004.19
2023-08-25 09:29:00,SystemResetWarning,0834.7,5.00,000.00,028.0,026.4,000.0,036.4,029.7,34.0,-000.1,0004.93,0008.58,0004.20
2023-08-25 09:30:00,SystemResetWarning,0834.7,5.01,000.00,028.1,026.6,000.0,036.5,029.8,33.6,-000.2,0004.91,0008.56,0004.20
2023-08-25 09:31:00,SystemResetWarning,0834.7,4.99,000.00,028.1,026.7,000.0,036.5,029.8,33.2,-000.1,0004.91,0008.53,0004.21
2023-08-25 09:32:00,SystemResetWarning,0834.7,4.99,000.00,028.2,026.9,000.0,036.5,029.9,33.2,0000.4,0004.91,0008.41,0004.20
2023-08-25 09:33:00,SystemResetWarning,0834.8,5.01,000.00,028.2,027.0,000.0,036.5,029.9,33.4,0000.9,0004.91,0008.30,0004.21
2023-08-25 09:34:00,SystemResetWarning,0834.8,5.00,000.00,028.2,026.6,000.0,036.5,029.9,33.3,0001.9,0004.90,0008.26,0004.22
2023-08-25 09:35:00,SystemResetWarning,0834.8,4.99,000.00,028.2,025.1,000.0,036.4,029.6,33.0,0002.2,0004.87,0008.19,0004.21
2023-08-25 09:36:00,SystemResetWarning,0835.2,5.01,000.00,028.1,024.5,000.0,036.3,029.4,33.3,0001.7,0004.87,0008.22,0004.22
2023-08-25 09:37:00,SystemResetWarning,0834.9,5.01,000.00,028.0,024.7,000.0,036.3,029.4,33.4,0001.4,0004.86,0008.17,0004.22
2023-08-25 09:38:00,SystemResetWarning,0834.7,5.00,000.00,027.9,025.0,000.0,036.4,029.4,33.2,0001.8,0004.85,0008.15,0004.21
2023-08-25 09:39:00,SystemResetWarning,0834.8,5.00,000.00,028.0,025.4,000.0,036.4,029.5,32.9,0002.4,0004.90,0008.33,0004.22
2023-08-25 09:40:00,SystemResetWarning,0834.7,5.00,000.00,028.0,025.7,000.0,036.4,029.6,32.7,0002.5,0004.93,0008.84,0004.24
2023-08-25 09:41:00,SystemResetWarning,0834.7,4.99,000.00,028.0,026.0,000.0,036.5,029.6,32.6,0002.5,0004.95,0008.92,0004.26
2023-08-25 09:42:00,SystemResetWarning,0834.7,5.00,000.00,028.0,026.3,000.0,036.5,029.7,32.6,0002.6,0004.96,0009.25,0004.27
2023-08-25 09:43:00,SystemResetWarning,0834.7,5.00,000.00,028.1,026.5,000.0,036.5,029.8,32.7,0002.1,0004.99,0009.40,0004.27
2023-08-25 09:44:00,SystemResetWarning,0834.7,5.01,000.00,028.1,026.7,000.0,036.5,029.8,32.5,0001.8,0005.04,0009.62,0004.28
2023-08-25 09:45:00,SystemResetWarning,0834.7,5.00,000.00,028.2,026.9,000.0,036.5,029.9,32.8,0001.0,0005.08,0009.62,0004.28
2023-08-25 09:46:00,SystemResetWarning,0834.7,5.00,000.00,028.2,027.0,000.0,036.6,029.9,32.8,0000.5,0005.12,0009.69,0004.30
2023-08-25 09:47:00,SystemResetWarning,0834.7,4.99,000.00,028.2,027.0,000.0,036.6,030.0,32.6,0000.6,0005.17,0010.00,0004.32
2023-08-25 09:48:00,SystemResetWarning,0835.0,4.99,000.00,028.2,025.5,000.0,036.4,029.7,32.5,0001.2,0005.21,0010.31,0004.34
2023-08-25 09:49:00,SystemResetWarning,0835.2,5.01,000.00,028.1,024.5,000.0,036.3,029.5,32.7,0001.4,0005.21,0010.37,0004.35
2023-08-25 09:50:00,SystemResetWarning,0834.6,5.01,000.00,028.0,024.6,000.0,036.3,029.5,32.5,0000.7,0005.18,0010.26,0004.34
2023-08-25 09:51:00,SystemResetWarning,0834.7,5.00,000.00,028.0,024.9,000.0,036.4,029.4,32.6,-000.1,0005.15,0009.97,0004.32
2023-08-25 09:52:00,SystemResetWarning,0834.6,5.00,000.00,028.0,025.2,000.0,036.4,029.5,32.4,-000.6,0005.18,0009.85,0004.32
2023-08-25 09:53:00,SystemResetWarning,0834.6,5.00,000.00,028.0,025.6,000.0,036.4,029.6,32.7,-000.6,0005.22,0009.78,0004.31
2023-08-25 09:54:00,SystemResetWarning,0834.6,4.99,000.00,028.0,025.9,000.0,036.5,029.6,33.0,-000.9,0005.21,0010.41,0004.31
2023-08-25 09:55:00,SystemResetWarning,0834.7,5.00,000.00,028.1,026.2,000.0,036.5,029.7,33.0,-000.5,0005.17,0010.40,0004.31
2023-08-25 09:56:00,SystemResetWarning,0834.6,5.00,000.00,028.1,026.5,000.0,036.5,029.8,32.9,0000.0,0005.16,0010.36,0004.31
2023-08-25 09:57:00,SystemResetWarning,0834.6,5.00,000.00,028.1,026.6,000.0,036.5,029.8,32.9,0000.0,0005.14,0010.40,0004.31
2023-08-25 09:58:00,SystemResetWarning,0834.6,5.00,000.00,028.2,026.8,000.0,036.5,029.9,32.8,-000.2,0005.12,0010.22,0004.30
2023-08-25 09:59:00,SystemResetWarning,0834.6,5.01,000.00,028.2,027.0,000.0,036.6,029.9,32.6,-000.6,0005.11,0010.78,0004.29
